Hinckley, MN

3:09 PM CST on December 13, 2019 (GMT -0600)
Hinckley

Weather History for K04W - July, 2019

Change the Weather History Date:

Friday, July 19, 2019

  Actual Average (KJMR) Record (KJMR)
Temperature  
Mean Temperature 72 °F -  
Max Temperature 80 °F 83 °F 101 °F (1934)
Min Temperature 64 °F 55 °F 41 °F (1984)
Cooling Degree Days 7    
Growing Degree Days 22 (Base 50)    
Moisture  
Dew Point 69 °F    
Average Humidity 89    
Maximum Humidity 100    
Minimum Humidity 69    
Precipitation  
Precipitation 0.06 in - - ()
Sea Level Pressure  
Sea Level Pressure 29.71 in    
Wind  
Wind Speed 1 mph (ENE)    
Max Wind Speed 12 mph    
Max Gust Speed 22 mph    
Visibility 6 miles    
Events Fog , Rain    
Averages and records for this station are not official NWS values.
T = Trace of Precipitation, MM = Missing Value Source: NWS Daily Summary

Daily Weather History Graph

Daily Weather History Graph

Search for Another Location

Airport or City:

Astronomy

Jul. 19, 2019 Rise Set
Actual Time 5:39 AM CDT 8:55 PM CDT
Civil Twilight 5:02 AM CDT 9:32 PM CDT
Nautical Twilight 4:15 AM CDT 10:19 PM CDT
Astronomical Twilight 3:15 AM CDT 11:18 PM CDT
Moon 10:47 PM CDT (7/19) 8:11 AM CDT (7/19)
Length of Visible Light 16h 29m
Length of Day
15h 16m
Waning Gibbous, 93% of the Moon is Illuminated
Jul 19
Waning Gibbous
Jul 24
Last Quarter
Jul 31
New
Aug 7
First Quarter
Aug 15
Full

Hourly Weather History & Observations

Time (CDT) Temp. Heat Index Dew Point Humidity Pressure Visibility Wind Dir Wind Speed Gust Speed Precip Events Conditions
12:17 AM 69.8 °F - 69.8 °F 100% 29.67 in 5.0 mi Calm Calm - N/A   Clear
12:35 AM 69.8 °F - 69.8 °F 100% 29.68 in 4.0 mi Calm Calm - N/A   Clear
12:36 AM 68.0 °F - 68.0 °F 100% 29.68 in 4.0 mi Calm Calm - N/A   Clear
12:55 AM 69.8 °F - 69.8 °F 100% 29.68 in 2.5 mi Calm Calm - N/A   Clear
12:56 AM 69.8 °F - 69.8 °F 100% 29.68 in 2.0 mi Calm Calm - N/A   Clear
1:15 AM 68.0 °F - 68.0 °F 100% 29.69 in 3.0 mi Calm Calm - N/A   Clear
1:20 AM 68.0 °F - 68.0 °F 100% 29.69 in 5.0 mi Calm Calm - N/A   Clear
1:37 AM 68.0 °F - 68.0 °F 100% 29.69 in 7.0 mi Calm Calm - N/A   Clear
1:56 AM 68.0 °F - 68.0 °F 100% 29.69 in 0.5 mi Calm Calm - N/A Fog Fog
2:15 AM 68.0 °F - 68.0 °F 100% 29.69 in 2.0 mi Calm Calm - N/A   Mostly Cloudy
2:16 AM 68.0 °F - 68.0 °F 100% 29.69 in 1.8 mi Calm Calm - N/A   Mostly Cloudy
2:35 AM 66.2 °F - 66.2 °F 100% 29.69 in 0.5 mi Calm Calm - N/A Fog Fog
2:36 AM 66.2 °F - 66.2 °F 100% 29.69 in 0.5 mi Calm Calm - N/A Fog Fog
2:58 AM 66.2 °F - 66.2 °F 100% 29.69 in 0.2 mi Calm Calm - N/A Fog Fog
3:16 AM 66.2 °F - 66.2 °F 100% 29.69 in 1.2 mi Calm Calm - N/A   Scattered Clouds
3:35 AM 68.0 °F - 68.0 °F 100% 29.69 in 2.5 mi Calm Calm - N/A   Clear
3:55 AM 66.2 °F - 66.2 °F 100% 29.69 in 0.2 mi Calm Calm - N/A Fog Fog
3:56 AM 66.2 °F - 66.2 °F 100% 29.69 in 0.2 mi Calm Calm - N/A Fog Fog
4:15 AM 64.4 °F - 64.4 °F 100% 29.69 in 0.2 mi Calm Calm - N/A Fog Fog
4:19 AM 64.4 °F - 64.4 °F 100% 29.70 in 0.2 mi Calm Calm - N/A Fog Fog
4:37 AM 66.2 °F - 66.2 °F 100% 29.71 in 0.5 mi Calm Calm - N/A Fog Fog
4:56 AM 64.4 °F - 64.4 °F 100% 29.71 in 0.2 mi Calm Calm - N/A Fog Fog
5:15 AM 64.4 °F - 64.4 °F 100% 29.72 in 1.8 mi Calm Calm - N/A   Overcast
5:16 AM 64.4 °F - 64.4 °F 100% 29.72 in 1.8 mi Calm Calm - N/A   Overcast
5:35 AM 64.4 °F - 64.4 °F 100% 29.73 in 0.2 mi Calm Calm - N/A Fog Fog
5:36 AM 64.4 °F - 64.4 °F 100% 29.73 in 0.2 mi Calm Calm - N/A Fog Fog
5:58 AM 64.4 °F - 64.4 °F 100% 29.74 in 0.2 mi Calm Calm - N/A Fog Fog
6:16 AM 64.4 °F - 64.4 °F 100% 29.75 in 0.2 mi Calm Calm - N/A Fog Fog
6:35 AM 64.4 °F - 64.4 °F 100% 29.75 in 0.2 mi Calm Calm - N/A Fog Fog
6:55 AM 64.4 °F - 64.4 °F 100% 29.76 in 0.5 mi Calm Calm - N/A Fog Fog
6:56 AM 64.4 °F - 64.4 °F 100% 29.76 in 0.5 mi Calm Calm - N/A Fog Fog
7:15 AM 68.0 °F - 68.0 °F 100% 29.76 in 1.0 mi Calm Calm - N/A   Overcast
7:19 AM 68.0 °F - 68.0 °F 100% 29.76 in 0.5 mi Calm Calm - N/A Fog Fog
7:37 AM 69.8 °F - 69.8 °F 100% 29.76 in 0.5 mi Calm Calm - N/A Fog Fog
7:56 AM 71.6 °F - 71.6 °F 100% 29.76 in 10.0 mi Calm Calm - N/A   Scattered Clouds
8:15 AM 73.4 °F - 73.4 °F 100% 29.77 in 10.0 mi Calm Calm - N/A   Clear
8:16 AM 73.4 °F - 73.4 °F 100% 29.77 in 10.0 mi Calm Calm - N/A   Clear
8:35 AM 73.4 °F - 71.6 °F 94% 29.76 in 10.0 mi Calm Calm - N/A   Clear
8:36 AM 73.4 °F - 71.6 °F 94% 29.76 in 10.0 mi Calm Calm - N/A   Clear
8:58 AM 77.0 °F - 71.6 °F 83% 29.76 in 10.0 mi Calm Calm - N/A   Clear
9:16 AM 77.0 °F - 69.8 °F 78% 29.74 in 10.0 mi SE 4.6 mph - N/A   Clear
9:36 AM 77.0 °F - 69.8 °F 78% 29.74 in 10.0 mi SE 3.5 mph - N/A   Clear
9:55 AM 78.8 °F - 69.8 °F 74% 29.73 in 10.0 mi ESE 3.5 mph - N/A   Clear
9:56 AM 78.8 °F - 69.8 °F 74% 29.73 in 10.0 mi SE 3.5 mph - N/A   Clear
10:15 AM 78.8 °F - 68.0 °F 69% 29.73 in 10.0 mi East 5.8 mph - N/A   Clear
10:20 AM 78.8 °F - 68.0 °F 69% 29.73 in 10.0 mi East 4.6 mph - N/A   Clear
10:37 AM 78.8 °F - 69.8 °F 74% 29.74 in 10.0 mi East 3.5 mph - N/A   Clear
10:55 AM 78.8 °F - 68.0 °F 69% 29.76 in 10.0 mi Calm Calm - N/A   Clear
11:15 AM 78.8 °F - 69.8 °F 74% 29.77 in 10.0 mi North 3.5 mph - N/A   Clear
11:16 AM 78.8 °F - 69.8 °F 74% 29.77 in 10.0 mi North 3.5 mph - N/A   Clear
11:35 AM 78.8 °F - 69.8 °F 74% 29.77 in 10.0 mi NNE 3.5 mph - N/A   Clear
11:36 AM 78.8 °F - 69.8 °F 74% 29.78 in 10.0 mi NNE 3.5 mph - N/A   Clear
11:58 AM 78.8 °F - 69.8 °F 74% 29.76 in 10.0 mi Calm Calm - N/A   Clear
12:16 PM 78.8 °F - 69.8 °F 74% 29.76 in 10.0 mi East 3.5 mph - N/A   Clear
12:35 PM 80.6 °F 83.9 °F 69.8 °F 70% 29.77 in 10.0 mi Calm Calm - N/A   Clear
12:36 PM 80.6 °F 83.9 °F 69.8 °F 70% 29.77 in 10.0 mi Calm Calm - N/A   Clear
12:55 PM 78.8 °F - 69.8 °F 74% 29.74 in 10.0 mi East 3.5 mph - N/A Rain Light Rain
12:56 PM 78.8 °F - 69.8 °F 74% 29.74 in 10.0 mi East 4.6 mph - N/A Rain Light Rain
1:18 PM 77.0 °F - 71.6 °F 83% 29.69 in 10.0 mi East 8.1 mph - N/A   Scattered Clouds
1:36 PM 78.8 °F - 71.6 °F 78% 29.66 in 10.0 mi East 8.1 mph - N/A   Clear
1:55 PM 78.8 °F - 69.8 °F 74% 29.64 in 10.0 mi East 8.1 mph - N/A   Clear
1:56 PM 78.8 °F - 69.8 °F 74% 29.64 in 10.0 mi East 8.1 mph - N/A   Clear
2:15 PM 77.0 °F - 69.8 °F 78% 29.65 in 10.0 mi SE 6.9 mph - N/A   Clear
2:16 PM 77.0 °F - 69.8 °F 78% 29.65 in 10.0 mi SE 6.9 mph - N/A   Clear
2:35 PM 78.8 °F - 71.6 °F 78% 29.64 in 10.0 mi SE 5.8 mph - N/A   Clear
2:40 PM 78.8 °F - 71.6 °F 78% 29.66 in 10.0 mi South 4.6 mph - N/A   Scattered Clouds
2:57 PM 77.0 °F - 69.8 °F 78% 29.65 in 10.0 mi NE 11.5 mph - N/A Rain Light Rain
3:15 PM 77.0 °F - 69.8 °F 78% 29.70 in 10.0 mi North 11.5 mph - N/A   Overcast
3:35 PM 80.6 °F 84.6 °F 71.6 °F 74% 29.68 in 10.0 mi NNE 5.8 mph - N/A   Mostly Cloudy
3:36 PM 80.6 °F 84.6 °F 71.6 °F 74% 29.68 in 10.0 mi NNE 5.8 mph - N/A   Overcast
3:55 PM 77.0 °F - 69.8 °F 78% 29.68 in 10.0 mi NE 6.9 mph 21.9 mph N/A   Overcast
4:17 PM 73.4 °F - 68.0 °F 83% 29.67 in 10.0 mi North 10.4 mph - N/A Rain Light Rain
4:22 PM 73.4 °F - 68.0 °F 83% 29.71 in 7.0 mi North 10.4 mph - 0.01 in Rain Rain
4:59 PM 69.8 °F - 68.0 °F 94% 29.66 in 5.0 mi NNE 9.2 mph - N/A Rain Light Rain
5:59 PM 69.8 °F - 69.8 °F 100% 29.64 in 10.0 mi East 6.9 mph - 0.05 in   Overcast
6:59 PM 73.4 °F - 69.8 °F 88% 29.64 in 10.0 mi North 5.8 mph - N/A   Mostly Cloudy
7:59 PM 73.4 °F - 69.8 °F 88% 29.68 in 10.0 mi North 5.8 mph - N/A   Clear
8:59 PM 69.8 °F - 68.0 °F 94% 29.69 in 10.0 mi North 4.6 mph - N/A   Clear
9:59 PM 69.8 °F - 68.0 °F 94% 29.72 in 10.0 mi North 4.6 mph - N/A   Clear
10:59 PM 68.0 °F - 68.0 °F 100% 29.76 in 10.0 mi Calm Calm - N/A   Clear
11:59 PM 66.2 °F - 66.2 °F 100% 29.78 in 10.0 mi Calm Calm - N/A   Clear